[[{"header":{"parameterUnit":"m.s-1","parameterCategory":1,"la1":30.2991,"la2":30.254,"lo1":-89.0895,"lo2":-89.0444,"dy":0.0017,"dx":0.0017,"nx":28,"ny":28,"refTime":"2025-08-15T09:00:00:Z","depth":0,"parameterNumber":2,"parameterNumberName":"U-component_of_WINDS"},"data":[0,0,0,0,0,0,0,0,0,0,0,0,0,0,0,0,0,0,0,0,0,0,0,0,0,0,0,0,0,0,0,0,0,0,0,0,0,0,0,0,0,0,0,0,0,0,0,0,0,0,0,0,0,0,0,0,0,0,1.7223,1.7223,0,1.7215,1.7215,1.7214,1.714,1.7138,1.7136,1.7135,1.7127,1.7129,1.713,0,0,0,0,0,0,0,0,0,0,0,0,0,1.7174,1.7176,1.7223,1.7223,1.7222,1.7215,1.7215,1.7214,1.714,1.7138,1.7136,1.7134,1.7127,1.7129,1.7131,0,0,0,0,0,0,0,0,0,0,0,0,0,1.7184,1.7176,1.7223,1.7185,1.7181,1.7215,1.7215,1.7214,1.7141,1.7138,1.7135,1.7133,1.7126,1.7129,1.7131,1.7201,0,0,1.7138,1.7139,0,0,0,0,0,0,0,0,1.7184,1.7186,1.719,1.7187,1.7183,1.7175,1.7195,1.721,1.7142,1.7156,1.7135,1.7131,1.7146,1.7146,1.7151,1.72,1.72,1.7138,1.7139,1.714,1.7141,0,0,0,0,0,0,0,1.7183,1.7186,1.7219,1.719,1.7186,1.7168,1.7166,1.7197,1.7167,1.7155,1.7149,1.7149,1.7143,1.7149,1.715,1.72,1.7138,1.714,1.7141,1.7142,1.7306,1.7309,0,0,0,0,0,0,1.7187,1.7186,1.722,1.7219,1.7177,1.7171,1.7169,1.7181,1.7166,1.7161,1.7152,1.7146,1.7146,1.7148,1.715,1.723,1.714,1.7143,1.7144,1.7303,1.7307,1.731,0,0,0,0,0,0,1.7187,1.7191,1.722,1.7201,1.7203,1.7175,1.7189,1.7182,1.7188,1.7164,1.7158,1.7163,1.7144,1.7146,1.7188,1.7229,1.7144,1.7146,1.73,1.7304,1.7308,1.7393,0,0,0,0,0,0,1.7186,1.7191,1.7218,1.7202,1.7205,1.7259,1.7191,1.7184,1.7192,1.7184,1.7173,1.7168,1.7142,1.7185,1.7191,1.7231,1.7147,1.7296,1.7302,1.7307,1.7386,1.7399,1.7411,0,0,0,0,0,1.7184,1.7242,1.7219,1.7224,1.7237,1.7261,1.7263,1.7231,1.7195,1.7221,1.7206,1.7169,1.7224,1.719,1.7196,1.7237,1.7293,1.73,1.7307,1.7381,1.7397,1.7411,0,0,0,0,0,0,1.7263,1.7239,1.7214,1.7268,1.7267,1.7249,1.7281,1.725,1.7259,1.7252,1.7212,1.721,1.7259,1.7252,1.7215,1.7304,1.7252,1.726,1.7306,1.7322,1.7334,1.7334,1.7149,0,0,0,0,0,1.7287,1.7309,1.7287,1.7337,1.7337,1.731,1.7319,1.7295,1.7293,1.7292,1.728,1.728,1.7296,1.7309,1.7323,1.7385,1.7381,1.7416,1.7428,1.7438,1.7446,1.7478,1.7493,1.7332,1.7332,1.7332,0,0,1.7336,1.7325,1.7342,1.7352,1.7349,1.7373,1.731,1.7338,1.7355,1.7296,1.7335,1.7326,1.7323,1.7376,1.7398,1.7371,1.749,1.7447,1.7455,1.7457,1.7487,1.7502,1.7515,1.7337,1.7336,1.7335,0,0,1.7437,1.7432,1.7473,1.7471,1.7466,1.7447,1.7457,1.7443,1.7435,1.7474,1.743,1.745,1.7481,1.748,1.7484,1.7586,1.7552,1.7592,1.7656,1.7688,1.7701,1.7712,1.7748,1.7762,1.7599,1.76,1.76,0,1.7499,1.7533,1.7498,1.7529,1.7535,1.7482,1.7523,1.7523,1.7524,1.753,1.75,1.7537,1.7531,1.7582,1.7607,1.7612,1.7622,1.7593,1.7702,1.7713,1.7722,1.7757,1.777,1.7604,1.7604,1.7603,1.7603,0,1.7609,1.7633,1.7667,1.7669,1.7678,1.7715,1.7685,1.7699,1.7674,1.7658,1.7698,1.769,1.7701,1.7712,1.7688,1.776,1.7744,1.7709,1.7656,1.7743,1.7775,1.7788,1.7611,1.761,1.7608,1.7607,0,0,1.776,1.7742,1.7755,1.7755,1.7746,1.7765,1.7798,1.7809,1.7822,1.7825,1.7852,1.7879,1.7847,1.7851,1.7827,1.7855,1.7936,1.7816,1.7815,1.7838,1.8015,1.8042,1.8057,1.7913,1.7916,1.7918,1.8015,0,1.7858,1.7914,1.7883,1.7944,1.7966,1.7917,1.7946,1.7944,1.7931,1.7948,1.7932,1.7952,1.7908,1.791,1.7935,1.7921,1.7971,1.7913,1.7939,1.794,1.7941,1.8074,1.8102,1.8194,1.8027,1.8029,1.8031,0,1.798,1.7987,1.805,1.8037,1.8045,1.8072,1.808,1.8096,1.8093,1.8081,1.8087,1.8055,1.8088,1.8036,1.808,1.8041,1.805,1.8044,1.8047,1.8048,1.7991,1.8078,1.8223,1.8237,1.805,1.8048,1.8047,0,1.8084,1.8109,1.815,1.8152,1.8137,1.8158,1.8153,1.8147,1.8156,1.8163,1.8168,1.8179,1.8185,1.8194,1.8167,1.8132,1.8215,1.8161,1.8206,1.8207,1.8226,1.8225,1.8374,1.8232,1.8232,1.8232,1.8231,0,1.8196,1.8237,1.8196,1.8222,1.8265,1.823,1.8274,1.8264,1.8259,1.8282,1.824,1.8262,1.8224,1.8243,1.8222,1.8262,1.8265,1.8256,1.825,1.826,1.8261,1.8265,1.8258,1.8235,1.8234,1.8234,1.8233,0,1.832,1.8294,1.8336,1.8319,1.8316,1.8349,1.8334,1.8357,1.834,1.8369,1.8374,1.8348,1.8368,1.8342,1.8359,1.8344,1.8399,1.8383,1.84,1.8396,1.8443,1.8439,1.8599,1.8619,1.8464,1.8466,1.8467,0,1.8393,1.8423,1.8409,1.8421,1.8419,1.8438,1.8447,1.8413,1.8424,1.8423,1.8446,1.8462,1.8473,1.8506,1.8489,1.8502,1.8486,1.8542,1.8488,1.8497,1.8487,1.8486,1.8488,1.8553,1.8555,1.8556,1.8557,0,1.8526,1.8512,1.8526,1.8536,1.8547,1.8553,1.8556,1.8568,1.8533,1.8547,1.8566,1.8575,1.8592,1.8609,1.8617,1.8612,1.8579,1.8574,1.8586,1.8596,1.8604,1.86,1.843,1.8571,1.857,1.8569,1.8568,1.8567,1.8627,1.8651,1.8645,1.8662,1.8661,1.8664,1.8685,1.8671,1.8686,1.8697,1.8676,1.8701,1.8697,1.8705,1.8704,1.8723,1.8699,1.8715,1.8719,1.8724,1.8731,1.8602,1.8724,1.8724,1.8723,1.8723,1.8723,0,1.8758,1.8751,1.8767,1.8772,1.8786,1.8753,1.8755,1.8768,1.879,1.8789,1.8801,1.8823,1.8839,1.8823,1.8836,1.8854,1.8839,1.8859,1.8857,1.8856,1.8751,1.874,1.887,1.887,1.887,1.887,1.887,1.887,1.8827,1.8867,1.8852,1.889,1.8883,1.8907,1.891,1.8914,1.8913,1.8939,1.8952,1.8941,1.8935,1.8947,1.896,1.8955,1.8961,1.8986,1.8976,1.8878,1.8864,1.885,1.8839,1.8988,1.8988,1.9079,1.908,1.908]},{"header":{"parameterUnit":"m.s-1","parameterCategory":1,"la1":30.2991,"la2":30.254,"lo1":-89.0895,"lo2":-89.0444,"dy":0.0017,"dx":0.0017,"nx":28,"ny":28,"refTime":"2025-08-15T09:00:00:Z","depth":0,"parameterNumber":3,"parameterNumberName":"V-component_of_WINDS"},"data":[0,0,0,0,0,0,0,0,0,0,0,0,0,0,0,0,0,0,0,0,0,0,0,0,0,0,0,0,0,0,0,0,0,0,0,0,0,0,0,0,0,0,0,0,0,0,0,0,0,0,0,0,0,0,0,0,0,0,-1.8167,-1.8168,0,-1.828,-1.8282,-1.8283,-1.8309,-1.8308,-1.8308,-1.8307,-1.8422,-1.8425,-1.8429,0,0,0,0,0,0,0,0,0,0,0,0,0,-1.7972,-1.7975,-1.8166,-1.8168,-1.8169,-1.828,-1.8282,-1.8283,-1.8309,-1.8308,-1.8307,-1.8307,-1.8421,-1.8425,-1.843,0,0,0,0,0,0,0,0,0,0,0,0,0,-1.8068,-1.7976,-1.8166,-1.8196,-1.82,-1.828,-1.8282,-1.8284,-1.831,-1.8308,-1.8307,-1.8306,-1.8419,-1.8425,-1.843,-1.8489,0,0,-1.8448,-1.845,0,0,0,0,0,0,0,0,-1.8062,-1.8075,-1.819,-1.8194,-1.8198,-1.8279,-1.8255,-1.8352,-1.831,-1.8268,-1.8307,-1.8306,-1.8375,-1.8384,-1.8408,-1.8494,-1.8499,-1.8448,-1.8451,-1.8454,-1.8456,0,0,0,0,0,0,0,-1.8056,-1.807,-1.8211,-1.8192,-1.8197,-1.8203,-1.8216,-1.8274,-1.8327,-1.8271,-1.8274,-1.8287,-1.8377,-1.8403,-1.8411,-1.8501,-1.8448,-1.8453,-1.8456,-1.8459,-1.8641,-1.8643,0,0,0,0,0,0,-1.8044,-1.8064,-1.8208,-1.8215,-1.8126,-1.8208,-1.8222,-1.8255,-1.8326,-1.8336,-1.8288,-1.8288,-1.8394,-1.8405,-1.8415,-1.8489,-1.8454,-1.8459,-1.8462,-1.864,-1.8642,-1.8643,0,0,0,0,0,0,-1.804,-1.8056,-1.8203,-1.814,-1.816,-1.8212,-1.8249,-1.8257,-1.8283,-1.8338,-1.8348,-1.8304,-1.8393,-1.8407,-1.8471,-1.8494,-1.8462,-1.8467,-1.8638,-1.8641,-1.8643,-1.8637,0,0,0,0,0,0,-1.8034,-1.8055,-1.8077,-1.8141,-1.8163,-1.8257,-1.8251,-1.826,-1.8293,-1.8294,-1.8356,-1.8365,-1.8393,-1.8462,-1.8476,-1.8501,-1.8471,-1.8636,-1.8639,-1.8642,-1.8636,-1.8639,-1.8642,0,0,0,0,0,-1.8027,-1.8071,-1.8078,-1.8096,-1.8192,-1.8258,-1.8271,-1.8302,-1.8295,-1.8318,-1.8354,-1.8363,-1.8489,-1.8468,-1.8485,-1.8511,-1.8635,-1.8638,-1.8642,-1.8634,-1.8638,-1.8642,0,0,0,0,0,0,-1.8008,-1.8079,-1.8089,-1.8154,-1.82,-1.8262,-1.8293,-1.8305,-1.8354,-1.8352,-1.8389,-1.8403,-1.8464,-1.8494,-1.847,-1.8572,-1.8562,-1.8568,-1.8551,-1.8555,-1.8558,-1.8549,-1.8476,0,0,0,0,0,-1.8011,-1.8059,-1.8119,-1.8171,-1.8194,-1.8239,-1.8269,-1.829,-1.8338,-1.8357,-1.8398,-1.8444,-1.8494,-1.8526,-1.8575,-1.864,-1.8655,-1.8667,-1.867,-1.8672,-1.8677,-1.8715,-1.8721,-1.8654,-1.8654,-1.8654,0,0,-1.8019,-1.8064,-1.8092,-1.8168,-1.8206,-1.8255,-1.8255,-1.8306,-1.8343,-1.8365,-1.8427,-1.8459,-1.8513,-1.8578,-1.8608,-1.8605,-1.8699,-1.8676,-1.8678,-1.8682,-1.8719,-1.8725,-1.8731,-1.8656,-1.8656,-1.8656,0,0,-1.8058,-1.8096,-1.8145,-1.8183,-1.824,-1.8271,-1.8282,-1.8343,-1.8365,-1.8429,-1.8447,-1.8491,-1.8576,-1.8614,-1.8645,-1.87,-1.8711,-1.8715,-1.8731,-1.8768,-1.8773,-1.8778,-1.8798,-1.8805,-1.872,-1.872,-1.872,0,-1.806,-1.8134,-1.8168,-1.8219,-1.8252,-1.8276,-1.8325,-1.836,-1.8431,-1.8453,-1.8448,-1.8557,-1.8595,-1.8669,-1.8683,-1.8707,-1.8722,-1.8708,-1.877,-1.8775,-1.878,-1.88,-1.8807,-1.872,-1.872,-1.872,-1.872,0,-1.8134,-1.8185,-1.8217,-1.8286,-1.8323,-1.8372,-1.8414,-1.8448,-1.8466,-1.8497,-1.8562,-1.8608,-1.8668,-1.8687,-1.8705,-1.8765,-1.8761,-1.8762,-1.8752,-1.8786,-1.8805,-1.8813,-1.8721,-1.872,-1.872,-1.872,0,0,-1.8162,-1.825,-1.8262,-1.8294,-1.836,-1.84,-1.8451,-1.851,-1.8539,-1.8587,-1.8631,-1.8703,-1.8706,-1.874,-1.8762,-1.8794,-1.8836,-1.8792,-1.8794,-1.8799,-1.8906,-1.8905,-1.8913,-1.8844,-1.8846,-1.8847,-1.8902,0,-1.821,-1.8302,-1.8335,-1.8411,-1.846,-1.8484,-1.8528,-1.8574,-1.8604,-1.865,-1.8684,-1.8735,-1.8733,-1.8755,-1.8787,-1.8824,-1.8858,-1.8821,-1.8886,-1.8887,-1.8871,-1.8923,-1.8922,-1.8971,-1.891,-1.8911,-1.8912,0,-1.8277,-1.8327,-1.8408,-1.847,-1.8491,-1.8531,-1.8588,-1.8631,-1.8684,-1.8704,-1.8744,-1.8764,-1.8819,-1.8806,-1.8883,-1.8856,-1.8885,-1.8907,-1.891,-1.8917,-1.8902,-1.8932,-1.8988,-1.8995,-1.8924,-1.8923,-1.8922,0,-1.829,-1.8378,-1.8439,-1.8465,-1.8538,-1.8566,-1.8597,-1.8649,-1.8682,-1.8733,-1.8755,-1.8811,-1.8841,-1.8884,-1.8919,-1.8906,-1.8993,-1.8982,-1.9011,-1.901,-1.9028,-1.9026,-1.9089,-1.9046,-1.9046,-1.9046,-1.9046,0,-1.8339,-1.8388,-1.8446,-1.8483,-1.8539,-1.8576,-1.8631,-1.8664,-1.871,-1.8754,-1.8778,-1.8819,-1.8862,-1.8909,-1.8937,-1.8996,-1.901,-1.9028,-1.9035,-1.9026,-1.9024,-1.9045,-1.9042,-1.9048,-1.9047,-1.9047,-1.9047,0,-1.8364,-1.8404,-1.8472,-1.8536,-1.8553,-1.8592,-1.8647,-1.8684,-1.8716,-1.8772,-1.8787,-1.8837,-1.8894,-1.8933,-1.9005,-1.9024,-1.9089,-1.9095,-1.9071,-1.9075,-1.9101,-1.9098,-1.918,-1.9193,-1.9141,-1.9141,-1.9142,0,-1.8392,-1.8431,-1.85,-1.8531,-1.8563,-1.8614,-1.8649,-1.8688,-1.8723,-1.8787,-1.8817,-1.8875,-1.8924,-1.9013,-1.9056,-1.9112,-1.9119,-1.9144,-1.9128,-1.9118,-1.912,-1.9118,-1.9122,-1.9147,-1.9147,-1.9147,-1.9148,0,-1.8439,-1.8458,-1.8508,-1.8565,-1.8607,-1.8654,-1.8701,-1.8725,-1.8773,-1.8812,-1.887,-1.8908,-1.8983,-1.904,-1.9101,-1.9133,-1.9149,-1.9153,-1.9162,-1.9154,-1.9139,-1.9148,-1.9078,-1.915,-1.915,-1.915,-1.915,-1.915,-1.8467,-1.8503,-1.8557,-1.8613,-1.8653,-1.8696,-1.8735,-1.8773,-1.8822,-1.8887,-1.8907,-1.8967,-1.902,-1.9103,-1.9137,-1.9185,-1.9183,-1.9197,-1.92,-1.9203,-1.9203,-1.9131,-1.9196,-1.9196,-1.9196,-1.9196,-1.9196,0,-1.8516,-1.8553,-1.8603,-1.8669,-1.8713,-1.8724,-1.8777,-1.8813,-1.8867,-1.8915,-1.8963,-1.9031,-1.9087,-1.9135,-1.9194,-1.9224,-1.9232,-1.9238,-1.9236,-1.9243,-1.9201,-1.9187,-1.923,-1.923,-1.923,-1.923,-1.923,-1.923,-1.8546,-1.8608,-1.8633,-1.8715,-1.8751,-1.8812,-1.8841,-1.8882,-1.8921,-1.8996,-1.9044,-1.9075,-1.9123,-1.9186,-1.9239,-1.9252,-1.9272,-1.9276,-1.929,-1.925,-1.9246,-1.9242,-1.923,-1.928,-1.928,-1.9329,-1.9329,-1.9329]}]]